Location: Harmony
(28.2000°N, 81.1500°W)
Time: 22:53:05
(UTC-05:00)

ALOS - Pass Details

Date: 18 December 2017
Orbit: 684 x 686 km, 97.8° (Epoch: 21 January)

Event Time Altitude Azimuth Distance (km) Brightness Sun altitude
Rises 19:21:35 0° 183° (S) 3,036 5.8 -23.4°
Reaches altitude 10° 19:23:55 10° 191° (S) 2,124 5.1 -23.9°
Maximum altitude 19:28:18 41° 261° (W) 991 3.5 -24.8°
Drops below altitude 10° 19:32:42 10° 331° (NNW) 2,133 5.0 -25.8°
Sets 19:35:04 0° 339° (NNW) 3,051 5.7 -26.3°
